Regional Weather Roundup
Issued by NWS

Home | Current Version | Previous Version | Graphics & Text | Print | Product List | Glossary On
Versions: 1 2 3 4 5 6 7 8 9 10 11 12 13 14 15 16 17 18 19 20 21 22 23 24 25 26 27 28 29 30 31 32 33 34 35 36 37 38 39 40 41 42 43 44 45 46 47 48 49 50
521
ASUS44 KMEG 052010
RWRTN
TENNESSEE HOURLY STATE WEATHER ROUNDUP
NATIONAL WEATHER SERVICE MEMPHIS TN
200 PM CST FRI FEB 05 2016

TNZ002-004-019-021-049-052-054-088>092-052100-
WEST TENNESSEE

CITY           SKY/WX    TMP DP  RH WIND       PRES   REMARKS
MEMPHIS INTL   PTSUNNY   54  18  24 CALM      30.42F
NWS MEMPHIS      N/A     53 N/A N/A MISG        N/A
JACKSON        CLOUDY    50  19  29 VRB5      30.41F
DYERSBURG      SUNNY     52  19  28 SW7       30.42F
UNION CITY     SUNNY     48  25  40 SW9       30.39F
PARIS          SUNNY     46  19  34 W10       30.39F
LEXINGTON      SUNNY     48  14  25 S6        30.40F
$$

TNZ008-025-027-028-033-062-065-066-052100-
NORTH MIDDLE TENNESSEE

CITY           SKY/WX    TMP DP  RH WIND       PRES   REMARKS
NASHVILLE      PTSUNNY   49  13  23 NW3       30.42F
CLARKSVILLE    CLOUDY    48  19  31 S8        30.39F
SMYRNA         SUNNY     48  16  28 VRB5      30.43F
COOKEVILLE     SUNNY     45  16  31 N5        30.38S
CROSSVILLE     CLOUDY    42  11  28 NW6       30.35F
$$

TNZ061-075-076-078-094-096-097-052100-
SOUTH MIDDLE TENNESSEE

CITY           SKY/WX    TMP DP  RH WIND       PRES   REMARKS
FAYETTEVILLE   SUNNY     45  16  31 CALM      30.40S
TULLAHOMA      SUNNY     45  12  26 N5        30.40S
WINCHESTER     SUNNY     45  16  31 N6        30.40S
MCMINNVILLE    SUNNY     43  16  33 VRB3      30.40S
COLUMBIA       SUNNY     46  21  36 VRB5      30.40F
SHELBYVILLE    SUNNY     46  18  31 NW7       30.42S
$$

TNZ017-018-042-046-047-052100-
NORTHEAST TENNESSEE

CITY           SKY/WX    TMP DP  RH WIND       PRES   REMARKS
TRI CITIES     MOSUNNY   42  13  30 NE5       30.35F
$$

TNZ012-013-036-069-073-074-052100-
CENTRAL EAST TENNESSEE

CITY           SKY/WX    TMP DP  RH WIND       PRES   REMARKS
KNOXVILLE      PTSUNNY   42  14  32 VRB3      30.39S
OAK RIDGE      CLOUDY    44  13  28 E6        30.40S
GATLINBURG       N/A     39  14  35 NE7       30.38S WCI  34
MORRISTOWN     CLEAR     41  14  33 VRB3      30.36S
$$

TNZ083-085-099-052100-
SOUTHEAST TENNESSEE

CITY           SKY/WX    TMP DP  RH WIND       PRES   REMARKS
CHATTANOOGA    PTSUNNY   47  12  24 NE9       30.40F
$$

SKY/WX REPORTED AS FAIR MEANS FEW OR NO CLOUDS BELOW
12 THOUSAND FEET.





USA.gov is the U.S. government's official web portal to all federal, state and local government web resources and services.